TimeAKDT,TemperatureF,Dew PointF,Humidity,Sea Level PressureIn,VisibilityMPH,Wind Direction,Wind SpeedMPH,Gust SpeedMPH,PrecipitationIn,Events,Conditions,WindDirDegrees,DateUTC
12:53 AM,33.1,21.9,64,29.64,10.0,SE,3.5,-,N/A,,Scattered Clouds,140,2013-05-16 08:53:00
1:53 AM,32.0,21.9,66,29.64,10.0,NNE,3.5,-,N/A,,Scattered Clouds,30,2013-05-16 09:53:00
2:53 AM,30.0,21.9,72,29.64,10.0,NNE,3.5,-,N/A,,Scattered Clouds,20,2013-05-16 10:53:00
3:53 AM,30.0,21.9,72,29.68,10.0,NNE,3.5,-,N/A,,Scattered Clouds,30,2013-05-16 11:53:00
4:53 AM,30.9,21.0,67,29.67,10.0,Calm,Calm,-,N/A,,Mostly Cloudy,0,2013-05-16 12:53:00
5:53 AM,32.0,21.9,66,29.68,10.0,NNE,4.6,-,N/A,,Mostly Cloudy,30,2013-05-16 13:53:00
6:53 AM,34.0,23.0,64,29.67,10.0,NNE,3.5,-,N/A,,Mostly Cloudy,30,2013-05-16 14:53:00
7:53 AM,37.9,21.9,53,29.66,10.0,Calm,Calm,-,N/A,,Mostly Cloudy,0,2013-05-16 15:53:00
8:53 AM,39.9,21.9,49,29.65,10.0,NNE,3.5,-,N/A,,Mostly Cloudy,20,2013-05-16 16:53:00
9:53 AM,44.1,23.0,43,29.63,10.0,East,6.9,-,N/A,,Mostly Cloudy,80,2013-05-16 17:53:00
10:53 AM,45.0,23.0,42,29.60,10.0,ESE,4.6,-,N/A,,Mostly Cloudy,110,2013-05-16 18:53:00
11:53 AM,48.9,23.0,36,29.58,10.0,NE,3.5,-,N/A,,Mostly Cloudy,40,2013-05-16 19:53:00
12:53 PM,51.1,21.0,31,29.55,10.0,SE,9.2,-,N/A,,Mostly Cloudy,140,2013-05-16 20:53:00
1:53 PM,52.0,19.9,28,29.52,10.0,SE,15.0,21.9,N/A,,Mostly Cloudy,130,2013-05-16 21:53:00
2:53 PM,52.0,21.0,30,29.50,10.0,SE,11.5,-,N/A,,Mostly Cloudy,140,2013-05-16 22:53:00
3:53 PM,50.0,23.0,35,29.51,10.0,SSE,12.7,20.7,N/A,,Overcast,150,2013-05-16 23:53:00
4:53 PM,50.0,23.0,35,29.49,10.0,ESE,8.1,-,N/A,,Overcast,110,2013-05-17 00:53:00
5:53 PM,50.0,24.1,36,29.47,10.0,ENE,3.5,-,N/A,,Overcast,70,2013-05-17 01:53:00
6:53 PM,51.1,24.1,35,29.46,10.0,Calm,Calm,-,N/A,,Mostly Cloudy,0,2013-05-17 02:53:00
7:53 PM,50.0,23.0,35,29.45,10.0,NW,3.5,-,N/A,,Mostly Cloudy,310,2013-05-17 03:53:00
8:53 PM,48.0,24.1,39,29.44,10.0,North,8.1,-,N/A,,Mostly Cloudy,360,2013-05-17 04:53:00
9:53 PM,46.9,25.0,42,29.43,10.0,NNW,5.8,-,N/A,,Mostly Cloudy,340,2013-05-17 05:53:00
10:53 PM,46.0,27.0,47,29.42,10.0,North,9.2,-,N/A,,Mostly Cloudy,10,2013-05-17 06:53:00
11:53 PM,45.0,27.0,49,29.41,10.0,North,6.9,-,N/A,,Mostly Cloudy,360,2013-05-17 07:53:00